Location: Zilina
(0.0000°N, 18.7333°E)
Time: 03:25:02
(UTC+02:00)

Cosmos 2184 Rocket - Pass Details

Date: 19 February 2019
Orbit: 960 x 1001 km, 82.9° (Epoch: 19 October)

Event Time Altitude Azimuth Distance (km) Brightness Sun altitude
Rises 18:40:34 0° 15° (NNE) 3,697 6.8 -10.2°
Reaches altitude 10° 18:43:22 10° 24° (NNE) 2,745 6.0 -10.9°
Maximum altitude 18:48:56 33° 87° (E) 1,579 4.6 -12.3°
Drops below altitude 10° 18:54:28 10° 149° (SSE) 2,729 6.2 -13.6°
Sets 18:57:12 0° 158° (SSE) 3,672 6.9 -14.3°
